Powrót do katalogu

CZ-3B DEB

AktywnyGTO
NORAD 40162·DEBRIS·🇨🇳 China

Wystrzelony Sep 4, 2010 z Xichang Satellite Launch Center

Loading…

TLE

NieaktualneSource: Space-Track

Epoka: Sep 14, 2026, 01:55 UTC

1 40162U 10042P   26257.07987021 -.00000067  00000-0  00000-0 0  9990
2 40162  26.2918 234.9870 7247582  32.6537 356.2130  1.92058196 89915

Śledź CZ-3B DEB w czasie rzeczywistym z AllMySat

Download on the App Store